When you browse on this site, cookies collect data to enhance your experience and personalize the content and advertising you see.
Visit our Privacy Policy to learn more. By continuing to use the site, you agree to this use of cookies and data.
  • In Hungary
  • List of Countries
  • For 7 days
  • Water Temperature
  • Satellite Maps
  • Weather Map
  • News
  • Weather Widgets
  • user-avatar
    Login

    Hourly Weather Pogost

    Today, 24 January, Thursday

    Time Temperature Precipitation Wind Pressure Humidity
    00:00 -17°C° 0 mm 2 mps 749 mmHg 96%
    01:00 -18°C° 0 mm 2 mps 748 mmHg 97%
    02:00 -18°C° 0 mm 2 mps 748 mmHg 98%
    03:00 -18°C° 0 mm 2 mps 748 mmHg 98%
    04:00 -19°C° 0 mm 2 mps 748 mmHg 98%
    05:00 -19°C° 0 mm 2 mps 747 mmHg 98%
    06:00 -19°C° 0 mm 2 mps 747 mmHg 98%
    07:00 -19°C° 0 mm 2 mps 747 mmHg 98%
    08:00 -20°C° 0 mm 2 mps 747 mmHg 97%
    09:00 -18°C° 0 mm 2 mps 746 mmHg 96%
    10:00 -17°C° 0 mm 2 mps 746 mmHg 95%
    11:00 -15°C° 0 mm 2 mps 746 mmHg 93%
    12:00 -14°C° 0 mm 2 mps 746 mmHg 93%
    13:00 -14°C° 0 mm 3 mps 746 mmHg 93%
    14:00 -13°C° 0 mm 3 mps 746 mmHg 92%
    15:00 -13°C° 0 mm 3 mps 746 mmHg 93%
    16:00 -13°C° 0 mm 3 mps 747 mmHg 93%
    17:00 -12°C° 0 mm 2 mps 747 mmHg 94%
    18:00 -12°C° 0 mm 2 mps 748 mmHg 94%
    19:00 -13°C° 0 mm 2 mps 748 mmHg 94%
    20:00 -13°C° 0 mm 2 mps 749 mmHg 94%
    21:00 -15°C° 0 mm 2 mps 749 mmHg 95%
    22:00 -17°C° 0 mm 2 mps 750 mmHg 96%
    23:00 -18°C° 0 mm 2 mps 750 mmHg 98%

    Tomorrow, 25 January, Friday

    Time Temperature Precipitation Wind Pressure Humidity
    00:00 -19°C° 0 mm 2 mps 751 mmHg 98%
    01:00 -20°C° 0 mm 2 mps 752 mmHg 99%
    02:00 -19°C° 0 mm 1 mps 752 mmHg 99%
    03:00 -19°C° 0 mm 1 mps 753 mmHg 99%
    04:00 -19°C° 0 mm 1 mps 753 mmHg 99%
    05:00 -20°C° 0 mm 1 mps 753 mmHg 99%
    06:00 -20°C° 0 mm 1 mps 754 mmHg 99%
    07:00 -20°C° 0 mm 1 mps 754 mmHg 99%
    08:00 -21°C° 0 mm 0 mps 754 mmHg 99%
    09:00 -19°C° 0 mm 0 mps 755 mmHg 97%
    10:00 -17°C° 0 mm 0 mps 755 mmHg 95%
    11:00 -15°C° 0 mm 0 mps 755 mmHg 93%
    12:00 -15°C° 0 mm 0 mps 755 mmHg 92%
    13:00 -14°C° 0 mm 0 mps 755 mmHg 92%
    14:00 -14°C° 0 mm 0 mps 755 mmHg 92%
    15:00 -15°C° 0 mm 1 mps 755 mmHg 92%
    16:00 -16°C° 0 mm 1 mps 755 mmHg 92%
    17:00 -17°C° 0 mm 1 mps 755 mmHg 92%
    18:00 -17°C° 0 mm 1 mps 755 mmHg 92%
    19:00 -17°C° 0 mm 1 mps 755 mmHg 91%
    20:00 -19°C° 0 mm 2 mps 755 mmHg 91%
    21:00 -18°C° 0 mm 2 mps 754 mmHg 91%
    22:00 -18°C° 0 mm 2 mps 754 mmHg 91%
    23:00 -18°C° 0 mm 2 mps 754 mmHg 91%

    Day after tomorrow, 26 January, Saturday

    Time Temperature Precipitation Wind Pressure Humidity
    00:00 -17°C° 0 mm 2 mps 753 mmHg 91%
    01:00 -17°C° 0 mm 2 mps 753 mmHg 91%
    02:00 -18°C° 0 mm 3 mps 752 mmHg 90%
    03:00 -18°C° 0 mm 3 mps 751 mmHg 89%
    04:00 -18°C° 0 mm 3 mps 750 mmHg 88%
    05:00 -18°C° 0 mm 3 mps 750 mmHg 87%
    06:00 -18°C° 0 mm 4 mps 749 mmHg 86%
    07:00 -18°C° 0 mm 4 mps 748 mmHg 85%
    08:00 -18°C° 0 mm 4 mps 747 mmHg 83%
    09:00 -19°C° 0.4 mm 5 mps 746 mmHg 87%
    10:00 -18°C° 0.4 mm 5 mps 745 mmHg 90%
    11:00 -18°C° 0.4 mm 5 mps 744 mmHg 94%
    12:00 -18°C° 0.5 mm 5 mps 743 mmHg 94%
    13:00 -17°C° 0.5 mm 5 mps 743 mmHg 94%
    14:00 -16°C° 0.5 mm 4 mps 742 mmHg 94%
    15:00 -16°C° 0.5 mm 4 mps 741 mmHg 94%
    16:00 -16°C° 0.5 mm 4 mps 741 mmHg 94%
    17:00 -15°C° 0.5 mm 4 mps 740 mmHg 94%
    18:00 -14°C° 0.4 mm 3 mps 739 mmHg 94%
    19:00 -14°C° 0.4 mm 3 mps 739 mmHg 94%
    20:00 -13°C° 0.4 mm 3 mps 738 mmHg 94%
    21:00 -13°C° 0.3 mm 3 mps 738 mmHg 95%
    22:00 -10°C° 0.3 mm 2 mps 738 mmHg 95%
    23:00 -10°C° 0.3 mm 2 mps 737 mmHg 95%

    27 January, Sunday

    Time Temperature Precipitation Wind Pressure Humidity
    00:00 -10°C° 0.2 mm 2 mps 737 mmHg 96%
    01:00 -9°C° 0.2 mm 2 mps 737 mmHg 96%
    02:00 -9°C° 0.2 mm 2 mps 736 mmHg 96%
    03:00 -8°C° 0.2 mm 1 mps 736 mmHg 97%
    04:00 -8°C° 0.2 mm 1 mps 735 mmHg 97%
    05:00 -7°C° 0.2 mm 1 mps 735 mmHg 97%
    06:00 -7°C° 0.3 mm 1 mps 735 mmHg 97%
    07:00 -7°C° 0.3 mm 1 mps 734 mmHg 97%
    08:00 -7°C° 0.3 mm 1 mps 734 mmHg 98%
    09:00 -6°C° 0.4 mm 1 mps 734 mmHg 97%
    10:00 -7°C° 0.4 mm 2 mps 734 mmHg 97%
    11:00 -7°C° 0.4 mm 2 mps 734 mmHg 97%
    12:00 -8°C° 0.4 mm 3 mps 734 mmHg 96%
    13:00 -9°C° 0.4 mm 3 mps 734 mmHg 95%
    14:00 -10°C° 0.4 mm 4 mps 734 mmHg 95%
    15:00 -11°C° 0.2 mm 4 mps 734 mmHg 94%
    16:00 -11°C° 0.2 mm 4 mps 734 mmHg 94%
    17:00 -12°C° 0.2 mm 3 mps 734 mmHg 93%
    18:00 -13°C° 0 mm 3 mps 734 mmHg 93%
    19:00 -15°C° 0 mm 3 mps 735 mmHg 93%
    20:00 -16°C° 0 mm 3 mps 735 mmHg 94%
    21:00 -17°C° 0 mm 3 mps 735 mmHg 94%
    22:00 -18°C° 0 mm 3 mps 736 mmHg 94%
    23:00 -21°C° 0 mm 3 mps 736 mmHg 95%

    28 January, Monday

    Time Temperature Precipitation Wind Pressure Humidity
    00:00 -21°C° 0 mm 3 mps 737 mmHg 95%
    01:00 -22°C° 0 mm 3 mps 737 mmHg 95%
    02:00 -22°C° 0 mm 3 mps 738 mmHg 95%
    03:00 -22°C° 0 mm 3 mps 738 mmHg 95%
    04:00 -23°C° 0 mm 3 mps 739 mmHg 96%
    05:00 -23°C° 0 mm 3 mps 739 mmHg 96%
    06:00 -23°C° 0 mm 3 mps 740 mmHg 96%
    07:00 -23°C° 0 mm 2 mps 740 mmHg 97%
    08:00 -23°C° 0 mm 2 mps 741 mmHg 97%
    09:00 -21°C° 0 mm 2 mps 741 mmHg 96%
    10:00 -20°C° 0 mm 2 mps 742 mmHg 95%
    11:00 -19°C° 0 mm 2 mps 742 mmHg 94%
    12:00 -18°C° 0 mm 2 mps 742 mmHg 94%
    13:00 -17°C° 0 mm 2 mps 742 mmHg 94%
    14:00 -15°C° 0 mm 1 mps 743 mmHg 94%
    15:00 -16°C° 0 mm 1 mps 743 mmHg 96%
    16:00 -17°C° 0 mm 1 mps 743 mmHg 97%
    17:00 -19°C° 0 mm 1 mps 744 mmHg 98%
    18:00 -19°C° 0 mm 1 mps 744 mmHg 99%
    19:00 -20°C° 0 mm 0 mps 744 mmHg 99%
    20:00 -21°C° 0 mm 0 mps 744 mmHg 99%
    21:00 -20°C° 0 mm 0 mps 744 mmHg 99%
    22:00 -20°C° 0 mm 1 mps 744 mmHg 99%
    23:00 -20°C° 0 mm 1 mps 744 mmHg 98%

    29 January, Tuesday

    Time Temperature Precipitation Wind Pressure Humidity
    00:00 -23°C° 0 mm 2 mps 744 mmHg 97%
    01:00 -23°C° 0 mm 2 mps 744 mmHg 96%
    02:00 -21°C° 0 mm 2 mps 743 mmHg 95%
    03:00 -21°C° 0 mm 2 mps 743 mmHg 94%
    04:00 -22°C° 0 mm 3 mps 742 mmHg 92%
    05:00 -21°C° 0 mm 3 mps 742 mmHg 90%
    06:00 -19°C° 0 mm 3 mps 742 mmHg 91%
    07:00 -17°C° 0 mm 3 mps 741 mmHg 91%
    08:00 -17°C° 0 mm 4 mps 741 mmHg 91%
    09:00 -16°C° 0.1 mm 4 mps 741 mmHg 92%
    10:00 -15°C° 0.1 mm 4 mps 740 mmHg 93%
    11:00 -14°C° 0.1 mm 4 mps 740 mmHg 94%
    12:00 -11°C° 0.1 mm 4 mps 739 mmHg 94%
    13:00 -9°C° 0.1 mm 4 mps 739 mmHg 93%
    14:00 -8°C° 0.1 mm 4 mps 738 mmHg 93%
    15:00 -7°C° 0.2 mm 4 mps 738 mmHg 93%
    16:00 -5°C° 0.2 mm 4 mps 737 mmHg 93%
    17:00 -4°C° 0.2 mm 4 mps 737 mmHg 93%
    18:00 -3°C° 0.4 mm 4 mps 737 mmHg 92%
    19:00 -4°C° 0.4 mm 5 mps 737 mmHg 92%
    20:00 -2°C° 0.4 mm 5 mps 736 mmHg 92%
    21:00 -2°C° 0.1 mm 5 mps 737 mmHg 92%
    22:00 -1°C° 0.1 mm 4 mps 737 mmHg 92%
    23:00 -1°C° 0.1 mm 4 mps 737 mmHg 93%
    Show more